Tracking 19562 objects as of 23-Mar-2019
HD Live streaming from Space Station
objects crossing your sky now

FLOCK 3K 8

Track FLOCK 3K 8 now!
10-day predictions
FLOCK 3K 8 is classified as:


NORAD ID: 43901
Int'l Code: 2018-111AB
Perigee: 486.3 km
Apogee: 515.6 km
Inclination: 97.3 °
Period: 94.5 minutes
Semi major axis: 6871 km
RCS: Unknown
Launch date: December 27, 2018
Source: United States (US)
Launch site: VOSTOCHNY COSMODROME (VOSTO)
aabbcc
Your satellite tracking list
Your tracking list is empty




NASA's NSSDC Master Catalog

Two Line Element Set (TLE):
1 43901U 18111AB  19082.17628742  .00002353  00000-0  99534-4 0  9993
2 43901  97.2958 349.7479 0021331 304.8705  55.0527 15.23985065 13113
Source of the keplerian elements: AFSPC